College Park, MD

9:37 PM EDT on July 23, 2017 (GMT -0400)
College Park

Weather History for KCGS - March, 2014

Change the Weather History Date:

Thursday, March 13, 2014

  Actual Average Record
Temperature  
Mean Temperature 28 °F -  
Max Temperature 33 °F 55 °F 92 °F (1990)
Min Temperature 23 °F 35 °F 17 °F (1960)
Degree Days  
Heating Degree Days 37    
Moisture  
Dew Point 4 °F    
Average Humidity 35    
Maximum Humidity 56    
Minimum Humidity 21    
Precipitation  
Precipitation 0.00 in - - ()
Sea Level Pressure  
Sea Level Pressure 29.88 in    
Wind  
Wind Speed 17 mph (WNW)    
Max Wind Speed 29 mph    
Max Gust Speed 37 mph    
Visibility 10 miles    
Events      
Averages and records for this station are not official NWS values.
T = Trace of Precipitation, MM = Missing Value Source: NWS Daily Summary

Daily Weather History Graph

Daily Weather History Graph

Search for Another Location

Airport or City:

Trip Planner

Search our weather history database for the weather conditions in past years. The results will help you decide how hot, cold, wet, or windy it might be!

Date:

Astronomy

Mar. 13, 2014 Rise Set
Actual Time 7:22 AM EDT 7:12 PM EDT
Civil Twilight 6:55 AM EDT 7:39 PM EDT
Nautical Twilight 6:24 AM EDT 8:10 PM EDT
Astronomical Twilight 5:53 AM EDT 8:41 PM EDT
Moon 4:37 PM EDT (3/13) 5:26 AM EDT (3/13)
Length of Visible Light 12h 43m
Length of Day
11h 50m
Waxing Gibbous, 91% of the Moon is Illuminated
Mar 13
Waxing Gibbous
Mar 16
Full
Mar 23
Last Quarter
Mar 30
New
Apr 7
First Quarter

Hourly Weather History & Observations

Time (EDT) Temp. Windchill Dew Point Humidity Pressure Visibility Wind Dir Wind Speed Gust Speed Precip Events Conditions
12:15 AM 33.8 °F 22.8 °F 19.4 °F 56% 29.49 in 10.0 mi WNW 18.4 mph 32.2 mph N/A   Clear
12:35 AM 33.8 °F 22.8 °F 19.4 °F 56% 29.51 in 10.0 mi WNW 18.4 mph 27.6 mph N/A   Clear
12:55 AM 32.0 °F 17.9 °F 17.6 °F 55% 29.52 in 10.0 mi NW 28.8 mph 35.7 mph N/A   Clear
1:15 AM 32.0 °F 20.5 °F 17.6 °F 55% 29.53 in 10.0 mi NW 18.4 mph 32.2 mph N/A   Clear
1:35 AM 32.0 °F 21.6 °F 17.6 °F 55% 29.53 in 10.0 mi WNW 15.0 mph 24.2 mph N/A   Clear
1:55 AM 32.0 °F 20.8 °F 17.6 °F 55% 29.54 in 10.0 mi WNW 17.3 mph 29.9 mph N/A   Clear
2:15 AM 32.0 °F 21.6 °F 17.6 °F 55% 29.56 in 10.0 mi NW 15.0 mph 24.2 mph N/A   Scattered Clouds
2:35 AM 32.0 °F 20.5 °F 17.6 °F 55% 29.58 in 10.0 mi WNW 18.4 mph 29.9 mph N/A   Scattered Clouds
2:55 AM 32.0 °F 22.5 °F 15.8 °F 51% 29.59 in 10.0 mi WNW 12.7 mph 26.5 mph N/A   Scattered Clouds
3:15 AM 32.0 °F 19.8 °F 14.0 °F 48% 29.60 in 10.0 mi West 20.7 mph 33.4 mph N/A   Scattered Clouds
3:35 AM 30.2 °F 18.5 °F 14.0 °F 51% 29.61 in 10.0 mi WNW 17.3 mph 29.9 mph N/A   Clear
3:55 AM 30.2 °F 17.4 °F 14.0 °F 51% 29.61 in 10.0 mi WNW 20.7 mph 28.8 mph N/A   Clear
4:15 AM 30.2 °F 20.2 °F 14.0 °F 51% 29.63 in 10.0 mi NW 12.7 mph 27.6 mph N/A   Scattered Clouds
4:35 AM 30.2 °F 18.1 °F 14.0 °F 51% 29.63 in 10.0 mi WNW 18.4 mph 26.5 mph N/A   Mostly Cloudy
4:55 AM 28.4 °F 14.4 °F 10.4 °F 47% 29.66 in 10.0 mi WNW 23.0 mph 33.4 mph N/A   Scattered Clouds
5:15 AM 28.4 °F 15.1 °F 8.6 °F 43% 29.68 in 10.0 mi NW 20.7 mph 36.8 mph N/A   Clear
5:35 AM 28.4 °F 16.2 °F 10.4 °F 47% 29.69 in 10.0 mi WNW 17.3 mph 33.4 mph N/A   Clear
5:55 AM 26.6 °F 13.8 °F 10.4 °F 51% 29.70 in 10.0 mi WNW 17.3 mph 29.9 mph N/A   Clear
6:15 AM 26.6 °F 15.2 °F 10.4 °F 51% 29.71 in 10.0 mi NW 13.8 mph 25.3 mph N/A   Clear
6:35 AM 26.6 °F 13.4 °F 10.4 °F 51% 29.73 in 10.0 mi West 18.4 mph 29.9 mph N/A   Scattered Clouds
6:55 AM 24.8 °F 10.0 °F 3.2 °F 40% 29.75 in 10.0 mi WNW 21.9 mph 28.8 mph N/A   Scattered Clouds
7:15 AM 24.8 °F 10.3 °F 3.2 °F 40% 29.76 in 10.0 mi WNW 20.7 mph 27.6 mph N/A   Clear
7:35 AM 23.0 °F 9.6 °F 3.2 °F 43% 29.77 in 10.0 mi WNW 16.1 mph 31.1 mph N/A   Clear
7:55 AM 23.0 °F 11.1 °F 1.4 °F 39% 29.79 in 10.0 mi WNW 12.7 mph 27.6 mph N/A   Clear
8:15 AM 23.0 °F 11.7 °F 1.4 °F 39% 29.81 in 10.0 mi WNW 11.5 mph 26.5 mph N/A   Clear
8:35 AM 24.8 °F 11.5 °F 3.2 °F 40% 29.82 in 10.0 mi WNW 17.3 mph 29.9 mph N/A   Clear
8:55 AM 23.0 °F 8.0 °F 1.4 °F 39% 29.83 in 10.0 mi WNW 20.7 mph 26.5 mph N/A   Clear
9:15 AM 24.8 °F 10.7 °F -0.4 °F 34% 29.85 in 10.0 mi WNW 19.6 mph 26.5 mph N/A   Clear
9:35 AM 24.8 °F 10.3 °F -0.4 °F 34% 29.86 in 10.0 mi NW 20.7 mph 31.1 mph N/A   Clear
9:55 AM 24.8 °F 11.5 °F -0.4 °F 34% 29.87 in 10.0 mi WNW 17.3 mph 27.6 mph N/A   Clear
10:15 AM 24.8 °F 9.6 °F -2.2 °F 31% 29.88 in 10.0 mi NW 23.0 mph 32.2 mph N/A   Clear
10:35 AM 26.6 °F 12.7 °F -2.2 °F 29% 29.89 in 10.0 mi WNW 20.7 mph 28.8 mph N/A   Clear
10:55 AM 26.6 °F 13.8 °F -2.2 °F 29% 29.91 in 10.0 mi NW 17.3 mph 27.6 mph N/A   Clear
11:15 AM 26.6 °F 13.4 °F -4.0 °F 26% 29.91 in 10.0 mi WNW 18.4 mph 28.8 mph N/A   Clear
11:40 AM 28.4 °F 15.1 °F -4.0 °F 25% 29.92 in 10.0 mi WNW 20.7 mph 27.6 mph N/A   Clear
12:00 PM 28.4 °F 15.4 °F -4.0 °F 25% 29.92 in 10.0 mi West 19.6 mph 34.5 mph N/A   Clear
12:20 PM 30.2 °F 17.4 °F -4.0 °F 23% 29.93 in 10.0 mi NW 20.7 mph 28.8 mph N/A   Clear
12:40 PM 30.2 °F 17.4 °F -4.0 °F 23% 29.93 in 10.0 mi NW 20.7 mph 31.1 mph N/A   Clear
1:00 PM 30.2 °F 17.1 °F -2.2 °F 25% 29.94 in 10.0 mi West 21.9 mph 29.9 mph N/A   Clear
1:20 PM 32.0 °F 18.4 °F -4.0 °F 21% 29.94 in 10.0 mi WNW 26.5 mph 33.4 mph N/A   Clear
1:40 PM 32.0 °F 21.2 °F -4.0 °F 21% 29.95 in 10.0 mi WNW 16.1 mph 28.8 mph N/A   Clear
2:00 PM 32.0 °F 20.5 °F -4.0 °F 21% 29.95 in 10.0 mi WNW 18.4 mph 29.9 mph N/A   Clear
2:20 PM 32.0 °F 19.2 °F -2.2 °F 23% 29.95 in 10.0 mi NW 23.0 mph 32.2 mph N/A   Clear
2:40 PM 32.0 °F 22.5 °F -0.4 °F 25% 29.95 in 10.0 mi WNW 12.7 mph 27.6 mph N/A   Clear
3:00 PM 32.0 °F 21.6 °F -0.4 °F 25% 29.95 in 10.0 mi NW 15.0 mph 26.5 mph N/A   Clear
3:20 PM 33.8 °F 23.5 °F -0.4 °F 23% 29.96 in 10.0 mi WNW 16.1 mph 23.0 mph N/A   Clear
3:40 PM 33.8 °F 23.5 °F -0.4 °F 23% 29.97 in 10.0 mi NW 16.1 mph 27.6 mph N/A   Clear
4:00 PM 33.8 °F 24.3 °F -0.4 °F 23% 29.97 in 10.0 mi NW 13.8 mph 26.5 mph N/A   Clear
4:20 PM 33.8 °F 23.2 °F -0.4 °F 23% 29.98 in 10.0 mi NW 17.3 mph 29.9 mph N/A   Clear
4:40 PM 33.8 °F 24.3 °F -0.4 °F 23% 29.98 in 10.0 mi NW 13.8 mph 25.3 mph N/A   Clear
5:00 PM 33.8 °F 21.6 °F -0.4 °F 23% 29.99 in 10.0 mi WNW 23.0 mph 28.8 mph N/A   Clear
5:20 PM 33.8 °F 24.3 °F -0.4 °F 23% 29.99 in 10.0 mi NW 13.8 mph 19.6 mph N/A   Clear
5:40 PM 33.8 °F 24.3 °F 1.4 °F 25% 30.01 in 10.0 mi WNW 13.8 mph 19.6 mph N/A   Clear
6:00 PM 33.8 °F 24.8 °F 1.4 °F 25% 30.02 in 10.0 mi West 12.7 mph 18.4 mph N/A   Clear
6:20 PM 33.8 °F 23.9 °F 1.4 °F 25% 30.04 in 10.0 mi WNW 15.0 mph 20.7 mph N/A   Clear
6:40 PM 33.8 °F 24.3 °F 1.4 °F 25% 30.05 in 10.0 mi WNW 13.8 mph 21.9 mph N/A   Clear
7:00 PM 32.0 °F 24.8 °F 1.4 °F 27% 30.06 in 10.0 mi WNW 8.1 mph 18.4 mph N/A   Clear
7:20 PM 32.0 °F 23.0 °F 1.4 °F 27% 30.08 in 10.0 mi WNW 11.5 mph 25.3 mph N/A   Clear
7:40 PM 32.0 °F 22.1 °F 1.4 °F 27% 30.09 in 10.0 mi NW 13.8 mph 19.6 mph N/A   Clear
8:00 PM 32.0 °F 25.6 °F 3.2 °F 30% 30.10 in 10.0 mi WNW 6.9 mph - N/A   Clear
8:20 PM 32.0 °F 26.4 °F 3.2 °F 30% 30.11 in 10.0 mi WNW 5.8 mph 10.4 mph N/A   Clear
8:40 PM 32.0 °F 25.6 °F 3.2 °F 30% 30.12 in 10.0 mi West 6.9 mph - N/A   Clear
9:00 PM 32.0 °F 27.5 °F 3.2 °F 30% 30.14 in 10.0 mi West 4.6 mph - N/A   Clear
9:20 PM 32.0 °F 25.6 °F 3.2 °F 30% 30.15 in 10.0 mi West 6.9 mph - N/A   Clear
9:40 PM 32.0 °F 26.4 °F 3.2 °F 30% 30.16 in 10.0 mi West 5.8 mph - N/A   Clear
10:00 PM 32.0 °F 27.5 °F 5.0 °F 32% 30.17 in 10.0 mi WNW 4.6 mph - N/A   Clear
10:20 PM 32.0 °F 26.4 °F 5.0 °F 32% 30.18 in 10.0 mi WNW 5.8 mph - N/A   Clear
10:40 PM 32.0 °F 26.4 °F 5.0 °F 32% 30.19 in 10.0 mi West 5.8 mph - N/A   Clear
11:00 PM 32.0 °F 28.7 °F 5.0 °F 32% 30.19 in 10.0 mi West 3.5 mph - N/A   Clear
11:20 PM 32.0 °F 27.5 °F 5.0 °F 32% 30.19 in 10.0 mi West 4.6 mph - N/A   Clear
11:40 PM 32.0 °F - 5.0 °F 32% 30.19 in 10.0 mi Calm Calm - N/A   Clear